IRIDIUM 33 DEB, 33859

Orbit data source: Space-Track

IRIDIUM 33 DEB, 33859 is space debris in LEO originally from a launch on Sun, 14 Sep 1997 UTC launched from the Tyuratam Missile And Space Complex (TTMTR). The debris from Iridium 33, an American commercial communications satellite, has been tracked extensively since its accidental collision with the defunct Russian satellite Cosmos 2251 in 2009. This event, occurring at high speed in low Earth orbit (LEO), generated thousands of pieces of space debris, significantly increasing the risk of further collisions. The Iridium 33 debris cloud has impacted space traffic management and orbital debris mitigation strategies, making it a subject of ongoing study in space situational awareness.

Not visible in the next 10 days
Identifier
33859, 1997-051AC
Orbit
LEO
Country
Flag of USUS
Related business
Manufacturer
Unknown
Mission
Spacecraft
Bus & Motor
Unknown
Mass
Unknown
Launch date (UTC)
1997-09-14 (28 years ago)
Launch vehicle
Unknown
Launch site
Tyuratam Missile And Space Complex (TTMTR)
Object type
Payload
Rocket body
Debris
Shape & HBR
Unknown shape, 0.1 m
Radar Cross Section
Small (<0.1 m²)

Expand to show TLE details & history
Last TLE update: 3 weeks ago

TLE from 3 weeks ago
0 IRIDIUM 33 DEB
1 33859U 97051AC  25331.39082143  .03536618  14480-1  14479-1 0  9990
2 33859  86.2997   5.4699 0003303 318.3882  41.7147 15.89753383883359
Epoch: 2025-11-27T09:22Z
TLE epoch observation values (Epoch: 2025-11-27T09:22:46.971Z)
Latitude
-0.00002°
Longitude
158.22577°
Altitude
304.593 km
Speed
7.726 km/s
True Right ascension
00h 21m 52s
True Declination
0° 00' 00"
Sunlit
Object was in full shadow at epoch
Visualization orbit readout
Latitude
Unknown
Longitude
Unknown
Altitude
Unknown
Speed
Unknown
Apparent Right ascension
Unknown
Apparent Declination
Unknown
Sunlit
N/A
Visualization observer readout
Local Sidereal Time
04:13:38
Azimuth
Unknown
Elevation
Unknown
Doppler factor
Unknown
Orbital elements
Apogee altitude
301.93 km
Perigee altitude
297.519 km
Semi-major axis
6,677.861 km
Eccentricity
0.00033
Inclination
86.2997°
RAAN
5.4699°
Arg. of periapsis
318.3882°
True anomaly
41.73989°
Mean anomaly
41.7147°
Eccentric anomaly
41.7273°
Mean motion
3.97729 °/min
Orbital period
90.51 mins
BSTAR
0.014479
Loading maneuver chart data...
Computing Atmospheric mass density...

Documentation

Showing up to 5 results
|